DMC 2

Satellite information

Favourite Embed

Satellite Type and Status

PAYLOADIN ORBIT

Key statistics

Satellite DMC 2 at a glance.

Uptime

5884

Days in orbit

Revolutions

≈ 14.8

Per day

Orbit

SSO

Sun Synchronous Orbit

Inclination

97.8

Latest

Satellite identification and parameters

Extended collection of information and parameters for DMC 2.

Object identification

Identified? True

Debris? False

Object name: DMC 2

International designator: 2009-041C

Object number (NORAD): 35683

Object ID (CCSDS): 35683

Country: UNITED KINGDOM (UK)

Current information (Y/N): Y

RCS size: MEDIUM

Orbital parameters

Period: 97.607 minutes

Inclination: 97.8445 deg

SMA: 7022.333 km

Apoapsis: 645.306 km

Periapsis: 643.089 km

RAAN: 27.6647 deg

Eccentricy: 0.00015783

Argument of periapsis: 94.8192 deg

Mean anomaly: 265.3198 deg

Mean motion: 14.75301104 rev/day

Mean motion (dot): 0.00001615 rev/day2

B* drag term: 0.00024565038 1/REarth

Two-line elements (TLE)

Creation date: Sept. 7, 2025, 3:09 a.m.

Reference frame: TEME

Reference center: EARTH

Epoch: Sept. 6, 2025, 10:29 p.m. UTC

TLE line 0: 0 DMC 2

TLE line 1: 1 35683U 09041C 25249.93691708 .00001615 00000-0 24565-3 0 9992

TLE line 2: 2 35683 97.8445 27.6647 0001578 94.8192 265.3198 14.75301104864794

Live tracking on map

Real-time ground track for satellite DMC 2.

In-orbit conjunctions

There are no conjunctions computed for DMC 2, at the moment. Check back to stay up to date, as we update our databases every day.

Go to all conjunctions

Associated space launch

Emirati Earth observation satellite. Launched with 5 secondary payloads.

DMC 2 was lifted into orbit during the mission ‘Dnepr | DubaiSat 1’, on board a Dnepr space rocket.

The launch took place on July 29, 2009, 6:46 p.m. from 109/95.

For more information about the launch, click the button.

Launch to space Dnepr | DubaiSat 1
Dnepr | DubaiSat 1

Agency: N/A

Status: Launch Successful

Launch date: July 29, 2009, 6:46 p.m. UTC

Rocket: Dnepr

Launch pad: 109/95

Location: Baikonur Cosmodrome, Republic of Kazakhstan

...

Latest news about this satellite

There are no fresh news available about this satellite. Check back as we update our databases every day.


Newsletter sign-up

Weekly statistics, charts and insights to help you stay on top of the space industry.